User: anonymous   Login
Location: Unspecified
(0.0000°N, 0.0000°E)
Time: 09:18:36
(UTC+00:00)
Language:

COSMOS 2453 - Orbit

View from above orbital plane
View from above orbital plane
View from above satellite
View from above satellite

Ground track
Ground track

The orbit data is extracted from the following two-line orbital elements,

1 35500U 09036C   17268.92574052 +.00000033 +00000-0 +16948-3 0  9996
2 35500 082.4848 267.1658 0005594 259.2936 100.7513 12.41452904372734
Epoch (UTC): 25 September 2017 22:13:03
Eccentricity: 0.0005594
inclination: 82.4848°
perigee height: 1496 km
apogee height: 1505 km
right ascension of ascending node: 267.1658°
argument of perigee: 259.2936°
revolutions per day: 12.41452904
mean anomaly at epoch: 100.7513°
orbit number at epoch: 37273

The dashed part of the orbit path shows where the satellite is in the earth's shadow,  

DLR